EXS86PF LGSK-EGBB

Flight info

Callsign EXS86PF
Flight time N/A
Altitude 38000
Route TSL UL617 MAKED DCT SKJ DCT LONTA UL608 DOLEV DCT MITNO DCT DOBOT DCT LURID DCT ZAG DCT RADLY DCT ABTAN DCT SIMBA DCT MAMOR DCT ADKUV DCT SOGRI DCT DENUT L610 HEMEL
Aircraft B738/M-SDE2E3FGHIRWXY/LB1

Departure

Time 2026-04-20 16:11
Airport Skiathos Island National Airport (LGSK)

Arrival

Time N/A
Airport Birmingham Airport (EGBB)
Time Latitude Longitude Altitude Speed Heading
2026-04-20 15:54 39.17909 23.50242 38 ft 0 kts 290°
2026-04-20 16:03 39.17907 23.50247 58 ft 3 kts 290°
2026-04-20 16:03 39.17898 23.50280 37 ft 4 kts 289°
2026-04-20 16:03 39.17889 23.50308 35 ft 4 kts 316°
2026-04-20 16:04 39.17869 23.50317 36 ft 4 kts 14°
2026-04-20 16:04 39.17854 23.50311 37 ft 1 kts 19°
2026-04-20 16:04 39.17852 23.50310 37 ft 0 kts 19°
2026-04-20 16:07 39.17885 23.50325 38 ft 7 kts 19°
2026-04-20 16:07 39.17921 23.50377 41 ft 9 kts 67°
2026-04-20 16:08 39.17950 23.50457 42 ft 11 kts 49°
2026-04-20 16:08 39.18015 23.50503 46 ft 12 kts 19°
2026-04-20 16:08 39.18103 23.50542 49 ft 15 kts 19°
2026-04-20 16:08 39.18203 23.50587 54 ft 15 kts 19°
2026-04-20 16:09 39.18302 23.50631 54 ft 15 kts 19°
2026-04-20 16:09 39.18379 23.50665 58 ft 11 kts 19°
2026-04-20 16:09 39.18446 23.50696 60 ft 10 kts 20°
2026-04-20 16:09 39.18486 23.50742 54 ft 6 kts 46°
2026-04-20 16:10 39.18507 23.50723 58 ft 6 kts 228°
2026-04-20 16:10 39.18486 23.50713 57 ft 0 kts 199°
2026-04-20 16:11 39.18419 23.50683 59 ft 45 kts 199°
2026-04-20 16:11 39.17806 23.50410 37 ft 137 kts 199°
2026-04-20 16:11 39.16772 23.49951 658 ft 156 kts 197°
2026-04-20 16:11 39.15736 23.49503 1644 ft 167 kts 198°
2026-04-20 16:12 39.14549 23.49014 2182 ft 193 kts 194°
2026-04-20 16:12 39.13156 23.49239 2366 ft 219 kts 150°
2026-04-20 16:12 39.12160 23.50807 2548 ft 244 kts 110°
2026-04-20 16:12 39.12069 23.53062 2776 ft 265 kts 75°
2026-04-20 16:13 39.12944 23.55168 3369 ft 271 kts 44°
2026-04-20 16:13 39.14322 23.56826 4177 ft 271 kts 41°
2026-04-20 16:13 39.15674 23.58509 4895 ft 275 kts 41°
2026-04-20 16:13 39.17135 23.60096 5605 ft 275 kts 24°
2026-04-20 16:14 39.18949 23.60725 6387 ft 269 kts 358°
2026-04-20 16:14 39.20772 23.60372 7146 ft 265 kts 338°
2026-04-20 16:14 39.22517 23.59551 7905 ft 268 kts 336°
2026-04-20 16:14 39.24270 23.58679 8675 ft 271 kts 336°
2026-04-20 16:15 39.26041 23.57798 9481 ft 274 kts 336°
2026-04-20 16:15 39.27840 23.56910 10226 ft 280 kts 337°
2026-04-20 16:15 39.29706 23.55995 10483 ft 302 kts 337°
2026-04-20 16:15 39.31750 23.54998 10676 ft 326 kts 337°
2026-04-20 16:16 39.33977 23.53919 10852 ft 348 kts 338°
2026-04-20 16:16 39.36308 23.52793 11014 ft 367 kts 338°
2026-04-20 16:16 39.38716 23.51630 11386 ft 379 kts 338°
2026-04-20 16:16 39.41201 23.50430 11970 ft 383 kts 338°
2026-04-20 16:17 39.43703 23.49220 12652 ft 385 kts 338°
2026-04-20 16:17 39.46225 23.48000 13331 ft 389 kts 338°
2026-04-20 16:17 39.48770 23.46768 13976 ft 392 kts 338°
2026-04-20 16:17 39.51333 23.45526 14611 ft 395 kts 338°
2026-04-20 16:18 39.53917 23.44274 15279 ft 397 kts 338°
2026-04-20 16:18 39.56517 23.43012 15940 ft 400 kts 338°
2026-04-20 16:18 39.59144 23.41736 16572 ft 403 kts 338°
2026-04-20 16:18 39.61780 23.40455 17184 ft 406 kts 338°
2026-04-20 16:19 39.64444 23.39159 17789 ft 410 kts 338°
2026-04-20 16:19 39.67121 23.37856 18363 ft 413 kts 338°
2026-04-20 16:19 39.69788 23.36556 18883 ft 416 kts 338°
2026-04-20 16:19 39.72499 23.35234 19428 ft 417 kts 338°
2026-04-20 16:20 39.75230 23.33902 19961 ft 419 kts 338°
2026-04-20 16:20 39.77972 23.32562 20478 ft 422 kts 338°
2026-04-20 16:20 39.80739 23.31209 20917 ft 426 kts 338°
2026-04-20 16:20 39.83530 23.29843 21356 ft 429 kts 338°
2026-04-20 16:21 39.86327 23.28473 21851 ft 431 kts 338°
2026-04-20 16:21 39.89139 23.27094 22341 ft 432 kts 338°
2026-04-20 16:21 39.91961 23.25710 22803 ft 435 kts 338°
2026-04-20 16:21 39.94798 23.24317 23238 ft 437 kts 338°
2026-04-20 16:22 39.97653 23.22913 23593 ft 440 kts 338°
2026-04-20 16:22 40.00528 23.21498 23931 ft 442 kts 338°
2026-04-20 16:22 40.03417 23.20075 24289 ft 444 kts 338°
2026-04-20 16:22 40.06278 23.18665 24616 ft 446 kts 338°
2026-04-20 16:23 40.09181 23.17233 24965 ft 447 kts 338°
2026-04-20 16:23 40.12097 23.15793 25310 ft 448 kts 338°
2026-04-20 16:23 40.15023 23.14347 25718 ft 447 kts 338°
2026-04-20 16:23 40.17921 23.12914 26233 ft 444 kts 338°
2026-04-20 16:24 40.20805 23.11486 26777 ft 441 kts 338°
2026-04-20 16:24 40.23663 23.10070 27286 ft 438 kts 337°
2026-04-20 16:24 40.26516 23.08654 27741 ft 438 kts 337°
2026-04-20 16:24 40.29364 23.07240 28190 ft 437 kts 337°
2026-04-20 16:25 40.32197 23.05831 28710 ft 434 kts 337°
2026-04-20 16:25 40.35017 23.04428 29283 ft 431 kts 337°
2026-04-20 16:25 40.37811 23.03037 29833 ft 428 kts 337°
2026-04-20 16:25 40.40554 23.01670 30274 ft 426 kts 337°
2026-04-20 16:26 40.43325 23.00288 30655 ft 426 kts 337°
2026-04-20 16:26 40.46088 22.98869 31004 ft 425 kts 335°
2026-04-20 16:26 40.48736 22.97159 31392 ft 423 kts 331°
2026-04-20 16:26 40.51330 22.95335 31801 ft 422 kts 330°
2026-04-20 16:27 40.53904 22.93488 32190 ft 421 kts 330°
2026-04-20 16:27 40.56472 22.91644 32569 ft 420 kts 330°
2026-04-20 16:27 40.59035 22.89816 32947 ft 419 kts 330°
2026-04-20 16:27 40.61600 22.87999 33317 ft 418 kts 331°
2026-04-20 16:28 40.64130 22.86215 33683 ft 417 kts 331°
2026-04-20 16:28 40.66684 22.84418 34025 ft 416 kts 331°
2026-04-20 16:28 40.69245 22.82619 34289 ft 416 kts 331°
2026-04-20 16:28 40.71802 22.80821 34522 ft 418 kts 331°
2026-04-20 16:29 40.74373 22.79012 34749 ft 419 kts 331°
2026-04-20 16:29 40.76946 22.77200 35019 ft 418 kts 330°
2026-04-20 16:29 40.79504 22.75397 35324 ft 417 kts 330°
2026-04-20 16:29 40.82062 22.73592 35583 ft 417 kts 330°
2026-04-20 16:30 40.84628 22.71780 35798 ft 418 kts 330°
2026-04-20 16:30 40.87196 22.69964 36047 ft 419 kts 330°
2026-04-20 16:30 40.89763 22.68147 36311 ft 418 kts 330°
2026-04-20 16:30 40.92303 22.66348 36537 ft 419 kts 330°
2026-04-20 16:31 40.94874 22.64526 36770 ft 419 kts 330°
2026-04-20 16:31 40.97449 22.62699 36980 ft 420 kts 330°
2026-04-20 16:31 41.00033 22.60864 37201 ft 421 kts 330°
2026-04-20 16:31 41.02609 22.59033 37435 ft 421 kts 330°
2026-04-20 16:32 41.05188 22.57198 37663 ft 421 kts 330°
2026-04-20 16:32 41.07768 22.55361 37863 ft 421 kts 330°
2026-04-20 16:32 41.12938 22.51589 37917 ft 424 kts 326°
2026-04-20 16:33 41.17526 22.46814 37917 ft 420 kts 319°
2026-04-20 16:33 41.22015 22.41878 37927 ft 417 kts 319°
2026-04-20 16:34 41.26491 22.36980 37915 ft 415 kts 319°
2026-04-20 16:34 41.30950 22.32119 37929 ft 414 kts 319°
2026-04-20 16:35 41.35402 22.27265 37926 ft 413 kts 319°
2026-04-20 16:35 41.39816 22.22445 37925 ft 413 kts 319°
2026-04-20 16:36 41.44262 22.17581 37939 ft 413 kts 319°
2026-04-20 16:36 41.48704 22.12713 37923 ft 414 kts 319°
2026-04-20 16:37 41.53152 22.07827 37923 ft 414 kts 319°
2026-04-20 16:37 41.57595 22.02940 37920 ft 414 kts 319°
2026-04-20 16:38 41.62041 21.98040 37919 ft 414 kts 319°
2026-04-20 16:38 41.66485 21.93133 37927 ft 414 kts 319°
2026-04-20 16:39 41.70896 21.88252 37933 ft 414 kts 319°
2026-04-20 16:39 41.75339 21.83329 37932 ft 414 kts 319°
2026-04-20 16:40 41.79772 21.78406 37934 ft 414 kts 318°
2026-04-20 16:40 41.84208 21.73470 37937 ft 414 kts 318°
2026-04-20 16:41 41.88636 21.68534 37938 ft 414 kts 318°
2026-04-20 16:41 41.93078 21.63575 37944 ft 415 kts 318°
2026-04-20 16:42 41.97594 21.58749 37948 ft 415 kts 320°
2026-04-20 16:42 42.01418 21.54819 37941 ft 416 kts 320°
2026-04-20 16:43 42.05998 21.50073 37945 ft 415 kts 320°
2026-04-20 16:43 42.10569 21.45294 37948 ft 415 kts 320°
2026-04-20 16:44 42.15125 21.40494 37942 ft 415 kts 318°
2026-04-20 16:44 42.19033 21.34894 37955 ft 412 kts 309°
2026-04-20 16:45 42.22733 21.28952 37963 ft 413 kts 309°
2026-04-20 16:45 42.26439 21.23023 37955 ft 413 kts 309°
2026-04-20 16:46 42.30152 21.17106 37954 ft 413 kts 309°
2026-04-20 16:46 42.33866 21.11187 37968 ft 412 kts 309°
2026-04-20 16:47 42.37546 21.05312 37964 ft 412 kts 309°
2026-04-20 16:47 42.41241 20.99403 37966 ft 411 kts 309°
2026-04-20 16:48 42.44931 20.93487 37969 ft 411 kts 309°
2026-04-20 16:48 42.48621 20.87560 37982 ft 411 kts 309°
2026-04-20 16:49 42.52303 20.81636 37971 ft 411 kts 309°
2026-04-20 16:49 42.55977 20.75710 37962 ft 411 kts 309°
2026-04-20 16:50 42.59634 20.69800 37962 ft 411 kts 309°
2026-04-20 16:50 42.63312 20.63844 37963 ft 412 kts 309°
2026-04-20 16:51 42.66990 20.57877 37959 ft 412 kts 309°
2026-04-20 16:51 42.70677 20.51883 37959 ft 413 kts 309°
2026-04-20 16:52 42.74343 20.45911 37950 ft 413 kts 309°
2026-04-20 16:52 42.78028 20.39894 37968 ft 414 kts 308°
2026-04-20 16:53 42.81717 20.33863 37964 ft 414 kts 308°
2026-04-20 16:53 42.85799 20.28292 37970 ft 416 kts 319°
2026-04-20 16:54 42.90279 20.23351 37951 ft 417 kts 319°
2026-04-20 16:54 42.94804 20.18339 37952 ft 416 kts 319°
2026-04-20 16:55 42.99251 20.13369 37949 ft 415 kts 318°
2026-04-20 16:55 43.03712 20.08358 37968 ft 414 kts 318°
2026-04-20 16:56 43.08164 20.03343 37971 ft 415 kts 318°
2026-04-20 16:56 43.12616 19.98319 37966 ft 415 kts 318°
2026-04-20 16:57 43.17070 19.93284 37960 ft 414 kts 318°
2026-04-20 16:57 43.21509 19.88255 37963 ft 414 kts 318°
2026-04-20 16:58 43.25922 19.83246 37982 ft 414 kts 317°